Location: *
(28.3744°N, 81.5492°W)
Time: 03:02:03
(UTC+00:00)

CZ-4B R/B - Pass Details

Date: 15 June 2025
Orbit: 700 x 798 km, 98.9° (Epoch: 11 July)

Event Time Altitude Azimuth Distance (km) Brightness Sun altitude
Exits shadow 02:19:06 26° 192° (SSW) 1,437 4.6 -21.3°
Maximum altitude 02:21:43 55° 259° (W) 914 4.0 -21.8°
Drops below altitude 10° 02:26:44 10° 337° (NNW) 2,325 6.9 -22.5°
Sets 02:29:08 0° 341° (NNW) 3,268 7.8 -22.9°
